Austin Bergstrom, TX

9:39 AM CST on January 20, 2018 (GMT -0600)
Austin Bergstrom International

Weather History for KAUS - August, 2013

Change the Weather History Date:

Wednesday, August 14, 2013

  Actual Average Record
Temperature  
Mean Temperature 90 °F 84 °F  
Max Temperature 103 °F 97 °F 104 °F (1956)
Min Temperature 76 °F 72 °F 62 °F (1967)
Degree Days  
Heating Degree Days 0 0  
Month to date heating degree days 0 0  
Since 1 June heating degree days 0 0  
Since 1 July heating degree days 0 0  
Cooling Degree Days 25 19  
Month to date cooling degree days 332 266  
Year to date cooling degree days 2020 1826  
Since 1 June cooling degree days 1506 1319  
Growing Degree Days 41 (Base 50)    
Moisture  
Dew Point 69 °F    
Average Humidity 58    
Maximum Humidity 87    
Minimum Humidity 29    
Precipitation  
Precipitation 0.00 in 0.05 in 4.66 in (1991)
Month to date precipitation 0.02 0.76  
Year to date precipitation 17.59 21.44  
Snow  
Snow 0.00 in - - ()
Month to date snowfall 0.0  
Since 1 June snowfall 0.0  
Since 1 July snowfall 0.0  
Snow Depth 0.00 in    
Sea Level Pressure  
Sea Level Pressure 29.91 in    
Wind  
Wind Speed 8 mph (SE)    
Max Wind Speed 21 mph    
Max Gust Speed 25 mph    
Visibility 10 miles    
Events      
T = Trace of Precipitation, MM = Missing Value Source: NWS Daily Summary

Daily Weather History Graph

Daily Weather History Graph

Search for Another Location

Airport or City:

Trip Planner

Search our weather history database for the weather conditions in past years. The results will help you decide how hot, cold, wet, or windy it might be!

Date:

Astronomy

Aug. 14, 2013 Rise Set
Actual Time 6:57 AM CDT 8:12 PM CDT
Civil Twilight 6:32 AM CDT 8:37 PM CDT
Nautical Twilight 6:02 AM CDT 9:07 PM CDT
Astronomical Twilight 5:30 AM CDT 9:38 PM CDT
Moon 2:21 PM CDT (8/14) 12:24 AM CDT (8/14)
Length of Visible Light 14h 05m
Length of Day
13h 15m
First Quarter, 53% of the Moon is Illuminated
Aug 14
First Quarter
Aug 20
Full
Aug 28
Last Quarter
Sep 5
New
Sep 12
First Quarter

Hourly Weather History & Observations

Time (CDT) Temp. Heat Index Dew Point Humidity Pressure Visibility Wind Dir Wind Speed Gust Speed Precip Events Conditions
12:53 AM 84.9 °F 88.8 °F 69.1 °F 59% 29.91 in 10.0 mi South 12.7 mph - N/A   Clear
1:53 AM 82.9 °F 86.5 °F 69.1 °F 63% 29.90 in 10.0 mi SSW 9.2 mph - N/A   Clear
2:53 AM 81.0 °F 84.1 °F 69.1 °F 67% 29.90 in 10.0 mi SSW 9.2 mph - N/A   Clear
3:53 AM 79.0 °F - 70.0 °F 74% 29.90 in 10.0 mi South 6.9 mph - N/A   Clear
4:53 AM 78.1 °F - 71.1 °F 79% 29.91 in 10.0 mi SSW 8.1 mph - N/A   Partly Cloudy
5:53 AM 77.0 °F - 71.1 °F 82% 29.92 in 10.0 mi South 4.6 mph - N/A   Clear
6:53 AM 75.9 °F - 71.1 °F 85% 29.93 in 10.0 mi South 3.5 mph - N/A   Scattered Clouds
7:53 AM 79.0 °F - 72.0 °F 79% 29.96 in 10.0 mi Calm Calm - N/A   Scattered Clouds
8:53 AM 82.9 °F 88.0 °F 72.0 °F 69% 29.97 in 10.0 mi SW 5.8 mph - N/A   Scattered Clouds
9:53 AM 87.1 °F 91.3 °F 69.1 °F 55% 29.97 in 10.0 mi WSW 10.4 mph 16.1 mph N/A   Partly Cloudy
10:53 AM 91.0 °F 94.3 °F 66.9 °F 45% 29.96 in 10.0 mi SW 9.2 mph 16.1 mph N/A   Partly Cloudy
11:53 AM 93.9 °F 97.5 °F 66.9 °F 41% 29.95 in 10.0 mi Variable 3.5 mph - N/A   Partly Cloudy
12:53 PM 97.0 °F 101.0 °F 66.9 °F 37% 29.93 in 10.0 mi Variable 6.9 mph - N/A   Scattered Clouds
1:53 PM 100.0 °F 103.6 °F 64.9 °F 32% 29.90 in 10.0 mi NNE 5.8 mph - N/A   Scattered Clouds
2:53 PM 100.9 °F 103.3 °F 63.0 °F 29% 29.86 in 10.0 mi Calm Calm - N/A   Scattered Clouds
3:53 PM 100.0 °F 101.8 °F 62.1 °F 29% 29.85 in 10.0 mi North 6.9 mph - N/A   Scattered Clouds
4:53 PM 91.9 °F 95.9 °F 68.0 °F 45% 29.86 in 10.0 mi NNE 18.4 mph - N/A   Mostly Cloudy
5:53 PM 88.0 °F 91.4 °F 68.0 °F 51% 29.88 in 10.0 mi NNE 15.0 mph - N/A   Mostly Cloudy
6:53 PM 86.0 °F 90.1 °F 69.1 °F 57% 29.86 in 10.0 mi NE 10.4 mph - N/A   Mostly Cloudy
7:53 PM 82.9 °F 86.5 °F 69.1 °F 63% 29.89 in 10.0 mi NE 13.8 mph - N/A   Mostly Cloudy
8:53 PM 82.0 °F 85.5 °F 69.1 °F 65% 29.90 in 10.0 mi NE 5.8 mph - N/A   Mostly Cloudy
9:53 PM 82.9 °F 86.5 °F 69.1 °F 63% 29.93 in 10.0 mi NNE 9.2 mph - N/A   Mostly Cloudy
10:53 PM 82.9 °F 87.0 °F 70.0 °F 65% 29.96 in 10.0 mi East 13.8 mph - N/A   Overcast
11:53 PM 81.0 °F 85.2 °F 72.0 °F 74% 29.97 in 10.0 mi NE 8.1 mph - N/A   Mostly Cloudy